Stations météo

réclame
Mon MeteoGroup
List/Sylt, Allemagne (10020): Température de l'air & dewpoint: 17.10.2018 11:00:00 - 23.10.2018 11:00:00 (CEST)List/Sylt, Allemagne (10020): Température de l'air 5cm & Température de l'air -5cm: 17.10.2018 11:00:00 - 23.10.2018 11:00:00 (CEST)List/Sylt, Allemagne (10020): Température de l'air -20cm: 17.10.2018 11:00:00 - 23.10.2018 11:00:00 (CEST)List/Sylt, Allemagne (10020): Vitesse du vent & gusts: 17.10.2018 11:00:00 - 23.10.2018 11:00:00 (CEST)List/Sylt, Allemagne (10020): Direction du vent: 17.10.2018 11:00:00 - 23.10.2018 11:00:00 (CEST)List/Sylt, Allemagne (10020): reduced air pressure: 17.10.2018 11:00:00 - 23.10.2018 11:00:00 (CEST)List/Sylt, Allemagne (10020): visibility: 17.10.2018 11:00:00 - 23.10.2018 11:00:00 (CEST)List/Sylt, Allemagne (10020): Ensoleillement: 17.10.2018 11:00:00 - 23.10.2018 11:00:00 (CEST)List/Sylt, Allemagne (10020): Quantités de précipitations: 17.10.2018 11:00:00 - 23.10.2018 11:00:00 (CEST)
Date & Time tt [°C] td [°C] tt 5cm [°C] tt -5cm [°C] tt -20cm [°C] ff [km/h] ff [knt] fx [km/h] fx [knt] dd ppp [hPa] vv [km] sd [min] rr [mm]
23.10.2018 11:00:00 13,1 9,7 12,7 11,5 11,7 64 35 86 47 WNW 1009,8 5 0 0,0
23.10.2018 10:00:00 12,5 10,4 11,8 11,4 11,7 63 34 88 47 WNW 1009,8 19 0 0,0
23.10.2018 09:00:00 12,2 10,6 11,4 11,3 11,7 60 33 84 46 W 1010,3 9 0 0,0
23.10.2018 08:00:00 11,9 10,1 11,0 11,2 11,6 62 34 87 47 W 1010,9 7 0 0,0
23.10.2018 07:00:00 11,6 10,1 10,7 11,2 11,6 57 31 86 47 W 1012,0 9 0 1,6
23.10.2018 06:00:00 11,5 9,5 10,5 11,1 11,6 59 32 86 46 W 1013,5 3,9 0 0,4
23.10.2018 05:00:00 11,7 8,6 10,2 11,1 11,6 58 31 81 44 W 1014,3 11 0 0,0
23.10.2018 04:00:00 12,4 7,9 12,2 11,1 11,6 57 31 78 42 W 1015,7 16 0 0,0
23.10.2018 03:00:00 12,4 7,6 12,2 11,0 11,6 59 32 80 43 W 1017,6 21 0 0,0
23.10.2018 02:00:00 12,5 7,5 12,3 10,9 11,6 53 29 81 44 W 1019,1 16 0 0,0
23.10.2018 01:00:00 11,8 7,3 10,8 10,8 11,7 53 29 73 40 W 1021,1 14 0 0,0
23.10.2018 00:00:00 11,9 6,0 11,6 10,8 11,7 48 26 77 41 W 1022,7 20 0 0,0
22.10.2018 23:00:00 11,5 4,9 10,9 10,7 11,8 47 26 65 35 W 1024,1 26 0 0,0
22.10.2018 22:00:00 11,3 3,9 10,7 10,8 11,9 44 24 61 33 W 1025,5 33 0 0,0
22.10.2018 21:00:00 11,1 4,5 10,3 10,9 11,9 35 19 50 27 W 1026,3 37 0 0,0
22.10.2018 20:00:00 10,3 5,3 9,9 10,9 12,0 36 20 55 30 W 1027,5 43 0 0,0
22.10.2018 19:00:00 10,8 4,2 10,0 11,1 12,1 40 21 51 28 WNW 1028,1 47 0 0,0
22.10.2018 18:00:00 10,7 4,0 9,5 11,3 12,1 30 16 53 28 WNW 1028,5 24 8 0,0
22.10.2018 17:00:00 10,8 3,4 10,2 11,6 12,2 36 20 50 27 WNW 1028,8 27 29 0,0
22.10.2018 16:00:00 11,5 3,8 11,8 11,6 12,2 37 20 58 31 NW 1029,1 14 22 0,0
22.10.2018 15:00:00 11,7 3,0 12,3 11,7 12,2 40 21 53 29 NW 1029,4 9 44 0,0
22.10.2018 14:00:00 11,6 3,1 12,5 11,7 12,2 40 21 61 33 NW 1028,7 13 29 0,0
22.10.2018 13:00:00 12,5 4,1 14,4 11,6 12,2 38 21 54 29 WNW 1029,1 3,9 55 0,0
22.10.2018 12:00:00 11,8 4,1 13,3 11,4 12,2 42 23 54 29 NW 1028,9 9 34 0,0
22.10.2018 11:00:00 9,8 4,9 8,7 11,3 12,3 46 25 61 33 NW 1028,9 13 19 0,0
22.10.2018 10:00:00 11,2 4,0 11,4 11,2 12,4 42 23 58 31 NW 1028,0 7 52 0,0
22.10.2018 09:00:00 10,9 4,3 9,9 11,4 12,5 42 23 58 32 NW 1027,4 22 0 0,0
22.10.2018 08:00:00 11,2 5,0 10,0 11,6 12,6 39 21 51 28 NW 1026,4 34 0 0,0
22.10.2018 07:00:00 11,1 5,1 9,6 11,8 12,7 36 19 54 29 NW 1026,0 40 0 0,0
22.10.2018 06:00:00 11,1 6,7 10,0 12,1 12,8 41 22 53 29 NNW 1025,3 34 0 0,0
22.10.2018 05:00:00 11,1 7,6 9,5 12,3 12,9 29 16 42 23 NNW 1024,9 42 0 0,0
22.10.2018 04:00:00 11,3 8,0 10,0 12,6 13,0 36 20 45 25 NNW 1024,6 51 0 0,0
22.10.2018 03:00:00 11,5 8,8 10,3 12,8 13,0 36 20 49 26 NNW 1024,1 41 0 0,0
22.10.2018 02:00:00 12,0 11,5 11,7 13,0 13,0 30 16 48 26 NNW 1023,7 8 0 0,5
22.10.2018 01:00:00 12,0 11,5 11,7 13,1 13,0 29 15 46 25 NNW 1023,3 2,3 0 0,4
22.10.2018 00:00:00 13,5 13,2 13,3 13,2 13,0 24 13 37 20 W 1022,7 2,0 0 0,0
21.10.2018 23:00:00 13,6 13,1 13,3 13,2 13,0 27 15 42 23 WSW 1022,5 6 0 0,1
21.10.2018 22:00:00 14,1 13,0 13,9 13,2 13,0 26 14 44 24 WSW 1022,6 6 0 0,0
21.10.2018 21:00:00 14,2 12,3 13,9 13,2 13,0 29 16 48 26 SW 1022,9 4,8 0 0,0
21.10.2018 20:00:00 14,3 12,8 14,2 13,3 13,0 29 15 48 26 SW 1023,1 4,8 0 0,0
21.10.2018 19:00:00 14,2 12,7 13,9 13,4 13,0 35 19 50 27 SW 1022,6 3,9 0 0,0
21.10.2018 18:00:00 14,3 12,9 14,4 13,6 12,9 32 17 43 23 SW 1022,7 4,2 0 0,0
21.10.2018 17:00:00 14,5 13,0 14,8 13,7 12,8 30 16 41 22 SW 1023,3 6 6 0,0
21.10.2018 16:00:00 14,7 13,0 15,5 13,7 12,7 27 15 46 25 SW 1024,0 6 0 0,0
21.10.2018 15:00:00 15,0 13,2 16,2 13,6 12,6 32 17 48 26 SW 1024,3 5 0 0,0
21.10.2018 14:00:00 14,8 12,9 15,9 13,4 12,4 36 19 48 26 SW 1024,5 7 0 0,0
21.10.2018 13:00:00 14,9 13,1 16,0 13,1 12,3 32 17 43 23 SW 1025,1 6 0 0,0
21.10.2018 12:00:00 15,0 13,3 16,8 12,7 12,2 29 15 38 21 SW 1025,6 7 0 0,0
21.10.2018 11:00:00 14,3 12,8 15,1 12,4 12,1 18 10 31 17 SSW 1025,9 10 0 0,0
21.10.2018 10:00:00 13,8 12,5 14,4 12,0 12,1 14 8 22 12 SSW 1026,1 12 0 0,0
21.10.2018 09:00:00 13,4 12,3 13,2 11,8 12,1 18 10 22 12 SSW 1026,1 12 0 0,0
21.10.2018 08:00:00 12,3 11,9 11,9 11,6 12,1 13 7 21 11 SSW 1026,2 11 0 0,0
21.10.2018 07:00:00 12,2 11,2 10,9 11,6 12,1 19 10 24 13 SSW 1026,1 19 0 0,0
21.10.2018 06:00:00 12,8 10,7 11,9 11,7 12,1 16 9 21 11 SSW 1026,4 64 0 0,0
21.10.2018 05:00:00 12,7 10,4 12,2 11,6 12,1 13 7 20 11 SW 1026,7 61 0 0,0
21.10.2018 04:00:00 12,5 10,6 12,0 11,5 12,1 11 6 18 10 SW 1026,9 53 0 0,0
21.10.2018 03:00:00 12,0 10,2 11,1 11,4 12,1 13 7 19 10 WSW 1027,2 52 0 0,0
21.10.2018 02:00:00 12,0 9,8 10,5 11,5 12,1 12 6 14 8 WSW 1027,6 55 0 0,0
21.10.2018 01:00:00 12,2 9,7 11,0 11,4 12,2 9 5 16 9 W 1028,0 47 0 0,0
21.10.2018 00:00:00 12,0 10,3 10,3 11,3 12,2 8 4 12 7 SSW 1028,3 32 0 0,0
20.10.2018 23:00:00 11,3 9,0 9,5 11,3 12,3 9 5 13 7 WSW 1028,2 35 0 0,0
20.10.2018 22:00:00 11,3 8,7 9,7 11,5 12,4 11 6 11 6 WSW 1028,1 32 0 0,0
20.10.2018 21:00:00 11,4 8,6 9,7 11,6 12,5 10 5 13 7 W 1028,6 37 0 0,0
20.10.2018 20:00:00 11,2 8,3 8,7 11,8 12,6 6 3 15 8 NW 1028,7 39 0 0,0
20.10.2018 19:00:00 11,0 7,7 9,4 12,2 12,6 13 7 27 14 WNW 1028,2 40 0 0,0
20.10.2018 18:00:00 12,0 7,7 11,1 12,5 12,6 18 10 27 14 WNW 1028,1 33 36 0,0
20.10.2018 17:00:00 13,0 7,8 13,7 12,8 12,6 21 11 30 16 WNW 1027,9 9 60 0,0
20.10.2018 16:00:00 12,9 7,2 13,2 12,9 12,5 26 14 36 19 NW 1028,4 19 59 0,0
20.10.2018 15:00:00 13,5 7,3 15,3 12,9 12,4 27 15 35 19 WNW 1028,0 4,5 60 0,0
20.10.2018 14:00:00 13,9 7,9 16,6 12,7 12,3 27 15 36 19 NW 1028,0 4,3 59 0,0
20.10.2018 13:00:00 13,8 8,1 16,7 12,4 12,2 27 15 34 18 NW 1027,9 4,2 53 0,0
20.10.2018 12:00:00 13,5 8,3 15,7 12,1 12,1 24 13 31 17 NW 1027,7 18 58 0,0
20.10.2018 11:00:00 13,1 9,5 14,7 11,8 12,1 21 11 36 19 NNW 1027,3 32 32 0,0
20.10.2018 10:00:00 13,0 9,7 13,7 11,6 12,0 25 14 34 18 NW 1026,6 16 28 0,0
20.10.2018 09:00:00 12,6 9,6 12,1 11,6 12,0 19 10 26 14 NW 1026,3 44 0 0,0
20.10.2018 08:00:00 12,5 10,5 12,0 11,5 12,0 19 10 29 16 W 1026,0 38 0 0,0
20.10.2018 07:00:00 12,1 9,5 11,7 11,5 12,0 23 12 34 18 W 1025,7 42 0 0,0
20.10.2018 06:00:00 11,7 9,0 11,3 11,4 12,1 24 13 44 24 W 1025,2 31 0 0,0
20.10.2018 05:00:00 12,6 7,9 12,0 11,4 12,1 29 16 40 21 W 1025,0 40 0 0,0
20.10.2018 04:00:00 12,5 8,9 11,6 11,4 12,1 29 15 42 23 W 1024,7 37 0 0,0
20.10.2018 03:00:00 12,6 8,2 12,0 11,3 12,1 25 13 39 21 SW 1025,2 26 0 0,0
20.10.2018 02:00:00 12,3 6,9 11,5 11,2 12,2 24 13 36 20 WSW 1025,2 70 0 0,0
20.10.2018 01:00:00 12,0 6,4 11,0 11,3 12,2 20 11 29 15 SW 1025,2 70 0 0,0
20.10.2018 00:00:00 12,1 6,3 11,3 11,2 12,3 21 11 26 14 SSW 1025,6 70 0 0,0
19.10.2018 23:00:00 10,6 5,1 9,4 11,2 12,4 13 7 16 8 SW 1025,8 70 0 0,0
19.10.2018 22:00:00 10,0 4,0 7,5 11,5 12,5 14 8 18 10 SW 1025,8 70 0 0,0
19.10.2018 21:00:00 10,7 3,4 9,4 11,7 12,6 11 6 15 8 SW 1026,0 70 0 0,0
19.10.2018 20:00:00 11,3 3,2 10,6 11,9 12,6 12 6 22 12 W 1025,8 70 0 0,0
19.10.2018 19:00:00 11,2 2,8 10,3 12,1 12,7 10 5 21 12 WSW 1025,7 70 0 0,0
19.10.2018 18:00:00 11,5 3,7 11,2 12,4 12,7 15 8 26 14 W 1025,3 70 0 0,0
19.10.2018 17:00:00 11,9 4,0 12,0 12,7 12,7 11 6 18 10 W 1025,3 70 0 0,0
19.10.2018 16:00:00 12,2 3,5 12,7 12,7 12,6 13 7 19 11 WNW 1025,6 68 0 0,0
19.10.2018 15:00:00 12,4 3,8 13,2 12,8 12,5 13 7 20 11 WNW 1026,0 60 0 0,0
19.10.2018 14:00:00 12,4 4,1 13,4 12,8 12,4 14 7 19 10 WNW 1026,3 56 0 0,0
19.10.2018 13:00:00 12,5 5,5 14,3 12,6 12,3 8 4 14 8 W 1026,5 64 0 0,0
19.10.2018 12:00:00 12,0 6,5 13,5 12,2 12,3 4 2 9 5 S 1026,7 59 0 0,0
19.10.2018 11:00:00 12,1 6,1 13,4 11,9 12,2 2 1 5 3 SW 1026,6 63 0 0,0
19.10.2018 10:00:00 11,4 6,2 11,6 11,5 12,2 2 1 6 4 WSW 1026,5 66 0 0,0
19.10.2018 09:00:00 10,5 5,9 10,0 11,3 12,3 6 4 11 6 NNE 1026,3 59 0 0,0
19.10.2018 08:00:00 10,4 4,9 9,8 11,4 12,3 8 4 10 5 NNE 1026,2 70 0 0,0
19.10.2018 07:00:00 10,5 4,4 8,9 11,4 12,4 3 1 9 5 SW 1026,0 70 0 0,0
19.10.2018 06:00:00 10,6 5,0 9,0 11,4 12,4 3 2 10 5 ENE 1026,1 69 0 0,0
19.10.2018 05:00:00 10,6 4,7 8,5 11,4 12,5 1 1 9 5 NW 1026,3 70 0 0,0
19.10.2018 04:00:00 10,2 5,4 9,0 11,5 12,5 8 5 14 7 NNE 1026,3 59 0 0,0
19.10.2018 03:00:00 10,1 5,9 9,0 11,5 12,6 5 3 16 9 NW 1026,4 61 0 0,0
19.10.2018 02:00:00 10,1 6,2 9,4 11,5 12,7 10 5 13 7 NE 1026,8 59 0 0,0
19.10.2018 01:00:00 9,6 6,9 8,5 11,4 12,8 8 5 14 8 NNE 1027,2 52 0 0,0
19.10.2018 00:00:00 8,9 6,3 6,2 11,5 12,9 11 6 18 10 NNE 1027,1 44 0 0,0
18.10.2018 23:00:00 9,6 6,5 8,7 11,6 13,1 13 7 24 13 NNE 1027,2 48 0 0,0
18.10.2018 22:00:00 9,6 6,4 8,2 11,8 13,2 16 9 26 14 N 1027,0 43 0 0,0
18.10.2018 21:00:00 9,2 5,4 7,6 12,0 13,3 19 10 32 17 N 1026,7 47 0 0,0
18.10.2018 20:00:00 9,8 4,8 8,1 12,3 13,5 22 12 31 17 N 1026,5 48 0 0,0
18.10.2018 19:00:00 10,0 5,3 8,3 12,7 13,6 23 12 35 19 NNW 1026,0 52 0 0,0
18.10.2018 18:00:00 11,1 5,8 10,0 13,1 13,6 26 14 38 20 NNW 1025,5 31 54 0,0
18.10.2018 17:00:00 12,2 5,9 12,8 13,5 13,6 31 17 39 21 NNW 1025,3 8 60 0,0
18.10.2018 16:00:00 13,1 6,7 14,6 13,7 13,6 31 17 41 22 NNW 1025,2 20 60 0,0
18.10.2018 15:00:00 13,8 6,5 16,4 13,8 13,6 31 17 37 20 NNW 1025,2 3,0 60 0,0
18.10.2018 14:00:00 13,9 6,4 16,6 13,7 13,5 29 16 37 20 NNW 1025,3 4,1 60 0,0
18.10.2018 13:00:00 13,9 8,0 17,2 13,4 13,4 27 15 40 21 N 1025,2 5 58 0,0
18.10.2018 12:00:00 13,6 8,7 16,0 13,2 13,4 29 16 41 22 N 1025,2 7 59 0,0
18.10.2018 11:00:00 13,1 9,1 14,4 12,9 13,5 31 17 41 22 N 1024,8 12 60 0,0
18.10.2018 10:00:00 12,2 9,5 12,8 12,8 13,6 27 15 37 20 N 1024,0 15 60 0,0
18.10.2018 09:00:00 10,8 9,1 9,7 12,9 13,7 22 12 40 22 N 1023,5 25 11 0,0
18.10.2018 08:00:00 11,0 9,1 10,4 13,2 13,7 30 16 45 25 N 1022,9 41 0 0,0
18.10.2018 07:00:00 11,3 10,0 10,8 13,3 13,8 33 18 43 23 N 1022,0 30 0 0,0
18.10.2018 06:00:00 12,1 11,5 11,5 13,5 13,8 32 17 45 24 NNW 1021,4 14 0 0,0
18.10.2018 05:00:00 12,7 12,2 12,5 13,5 13,8 24 13 33 18 NNW 1021,1 28 0 0,2
18.10.2018 04:00:00 13,1 12,8 12,9 13,5 13,9 22 12 29 16 NNW 1020,8 1,1 0 0,0
18.10.2018 03:00:00 12,9 12,5 12,5 13,4 13,9 11 6 19 10 WNW 1020,8 7 0 0,0
18.10.2018 02:00:00 13,0 12,7 12,4 13,6 14,0 15 8 19 10 NW 1020,7 7 0 0,0
18.10.2018 01:00:00 13,1 13,0 12,9 13,5 14,1 12 6 16 8 WNW 1020,7 3,8 0 0,0
18.10.2018 00:00:00 13,0 13,0 11,7 13,6 14,2 9 5 11 6 WNW 1020,4 0,1 0 0,0
17.10.2018 23:00:00 13,0 12,9 11,3 13,8 14,3 9 5 11 6 WSW 1020,3 1,0 0 0,0
17.10.2018 22:00:00 13,3 13,0 12,8 14,0 14,4 10 5 12 7 WSW 1020,3 2,7 0 0,0
17.10.2018 21:00:00 13,1 12,7 11,3 14,1 14,5 9 5 10 5 WSW 1019,9 4,0 0 0,0
17.10.2018 20:00:00 13,4 12,8 9,0 14,5 14,6 4 2 12 7 WSW 1019,6 5 0 0,0
17.10.2018 19:00:00 14,0 12,7 12,7 15,0 14,6 8 5 17 9 NW 1019,1 8 0 0,0
17.10.2018 18:00:00 14,7 12,9 14,6 15,5 14,6 11 6 22 12 NW 1018,9 12 0 0,0
17.10.2018 17:00:00 15,1 13,6 15,9 15,8 14,5 15 8 21 12 WNW 1018,7 7 0 0,0
17.10.2018 16:00:00 16,1 13,9 17,7 16,0 14,4 12 7 18 10 W 1018,4 4,9 6 0,0
17.10.2018 15:00:00 16,5 13,7 18,8 15,8 14,2 9 5 20 11 WSW 1018,3 5 0 0,0
17.10.2018 14:00:00 17,5 13,4 20,9 15,6 14,0 12 7 22 12 SW 1018,1 7 35 0,0
17.10.2018 13:00:00 17,3 13,2 21,5 15,1 13,8 14 8 19 11 SSW 1018,2 6 26 0,0
17.10.2018 12:00:00 15,5 13,4 18,4 14,4 13,6 15 8 24 13 S 1018,2 4,9 48 0,0
17.10.2018 11:00:00 15,0 13,4 16,1 13,7 13,6 16 9 26 14 S 1018,0 4,3 60 0,0

tt = Température de l'air
td = dewpoint
tt 5cm = Température de l'air 5cm
tt -5cm = Température de l'air -5cm
tt -20cm = Température de l'air -20cm
ff = Vitesse du vent
fx = gusts
dd = Direction du vent
ppp = reduced air pressure
vv = visibility
sd = Ensoleillement
rr = Quantités de précipitations

stations d'obs. à proximité